Voltar ao catálogo

SL-8 R/B

AtivoLEO
NORAD 15032·ROCKET BODY·🇷🇺 Russia

Lançado Jun 8, 1984 de Plesetsk Cosmodrome

Loading…

Próximas Passagens (próximas 24 horas)

TLE

AtualizadoSource: Space-Track

Época: Sep 13, 2026, 14:29 UTC

1 15032U 84056B   26256.60364042  .00000090  00000-0  39547-4 0  9991
2 15032  74.0710  21.2507 0016166  49.3292 310.9263 14.36173502210883

Acompanhe SL-8 R/B em tempo real com AllMySat

Download on the App Store